User: anonymous   Login
Location: Unspecified
(0.0000°N, 0.0000°E)
Time: 10:21:32
(UTC+00:00)
Language:

Optus B1 - Orbit

View from above orbital plane
View from above orbital plane
View from above satellite
View from above satellite

Ground track
Ground track

The orbit data is extracted from the following two-line orbital elements,

1 22087U 92054A   15026.46344529 -.00000313  00000-0  00000+0 0   471
2 22087 007.2991 053.4818 0007009 026.5942 345.4342 00.99206983 93432
Epoch (UTC): 26 January 2015 11:07:21
Eccentricity: 0.0007009
inclination: 7.2991°
perigee height: 36057 km
apogee height: 36117 km
right ascension of ascending node: 53.4818°
argument of perigee: 26.5942°
revolutions per day: 0.99206983
mean anomaly at epoch: 345.4342°
orbit number at epoch: 9343

The dashed part of the orbit path shows where the satellite is in the earth's shadow,  

DLR